This is the latest recevied weather packets stored in our database for station/object W0SS-13. If no packets are shown the sender has not sent any weather packets the latest 10 day(s).
| Time | Temp. | Humidity | Pressure | Rain* | Wind** | Luminosity | Snow |
|---|---|---|---|---|---|---|---|
| 1777761121 | 17.22° C | 35% | 1019.9 hPa | 0 mm | - | 328 W/m² | - |
| 1777760818 | 17.22° C | 36% | 1020.1 hPa | 0 mm | - | 343 W/m² | - |
| 1777760515 | 17.22° C | 35% | 1019.9 hPa | 0 mm | - | 359 W/m² | - |
| 1777760210 | 17.22° C | 34% | 1020.1 hPa | 0 mm | - | 375 W/m² | - |
| 1777759908 | 17.78° C | 36% | 1020.1 hPa | 0 mm | - | 393 W/m² | - |
| 1777759604 | 17.22° C | 34% | 1020.1 hPa | 0 mm | - | 409 W/m² | - |
| 1777759300 | 17.22° C | 33% | 1020.2 hPa | 0 mm | - | 423 W/m² | - |
| 1777758997 | 17.22° C | 33% | 1020.3 hPa | 0 mm | - | 438 W/m² | - |
| 1777758694 | 17.22° C | 37% | 1020.1 hPa | 0 mm | - | 453 W/m² | - |
| 1777758391 | 17.78° C | 36% | 1020.4 hPa | 0 mm | - | 469 W/m² | - |
| 1777758088 | 17.22° C | 33% | 1020.3 hPa | 0 mm | - | 484 W/m² | - |
| 1777757786 | 17.22° C | 35% | 1020.3 hPa | 0 mm | - | 496 W/m² | - |
| 1777757483 | 17.22° C | 36% | 1020.4 hPa | 0 mm | - | 512 W/m² | - |
| 1777757182 | 16.67° C | 35% | 1020.6 hPa | 0 mm | - | 525 W/m² | - |
| 1777756880 | 16.67° C | 33% | 1020.6 hPa | 0 mm | - | 539 W/m² | - |
| 1777756574 | 16.67° C | 38% | 1020.5 hPa | 0 mm | - | 551 W/m² | - |
| 1777756271 | 17.22° C | 37% | 1020.8 hPa | 0 mm | - | 563 W/m² | - |
| 1777755969 | 17.22° C | 37% | 1020.7 hPa | 0 mm | - | 580 W/m² | - |
| 1777755660 | 16.67° C | 35% | 1020.8 hPa | 0 mm | - | 591 W/m² | - |
| 1777755357 | 16.67° C | 35% | 1020.8 hPa | 0 mm | - | 603 W/m² | - |
| 1777755054 | 16.67° C | 33% | 1021 hPa | 0 mm | - | 614 W/m² | - |
| 1777754750 | 16.67° C | 39% | 1021 hPa | 0 mm | - | 625 W/m² | - |
| 1777754449 | 16.67° C | 32% | 1020.9 hPa | 0 mm | - | 637 W/m² | - |
| 1777754145 | 16.11° C | 39% | 1020.9 hPa | 0 mm | - | 648 W/m² | - |
| 1777753843 | 16.67° C | 33% | 1021 hPa | 0 mm | - | 661 W/m² | - |
* Rain latest hour (hover to see other rain measurements)
** Current wind speed in m/s (hover to see current wind gust speed)